Time,TemperatureF,DewpointF,PressureIn,WindDirection,WindDirectionDegrees,WindSpeedMPH,WindSpeedGustMPH,Humidity,HourlyPrecipIn,Conditions,Clouds,dailyrainin,SolarRadiationWatts/m^2,SoftwareType,DateUTC
2013-08-09 10:22:00,49.0,48.0,29.90,SE,136,0.0,0.0,97,0.00,,,0.01,19.000000,,2013-08-09 14:22:00,
2013-08-09 10:33:00,49.0,48.0,29.90,SE,136,0.0,0.0,97,0.00,,,0.01,19.000000,,2013-08-09 14:33:00,
2013-08-09 10:43:00,49.0,48.0,29.91,SE,136,0.0,0.0,97,0.00,,,0.01,37.000000,,2013-08-09 14:43:00,
2013-08-09 10:53:00,49.0,48.0,29.91,SE,136,0.0,0.0,98,0.00,,,0.01,63.000000,,2013-08-09 14:53:00,
2013-08-09 11:01:00,49.0,48.0,29.91,SE,136,0.0,0.0,98,0.00,,,0.01,63.000000,,2013-08-09 15:01:00,
2013-08-09 11:11:00,50.0,49.0,29.91,SE,136,0.0,0.0,98,0.00,,,0.01,81.000000,,2013-08-09 15:11:00,
2013-08-09 11:22:00,50.0,49.0,29.91,SE,136,0.0,0.0,98,0.00,,,0.01,81.000000,,2013-08-09 15:22:00,
2013-08-09 11:32:00,50.0,49.0,29.91,SE,136,0.0,0.0,97,0.00,,,0.01,97.000000,,2013-08-09 15:32:00,
2013-08-09 11:44:00,51.0,50.0,29.91,NE,53,0.0,0.0,96,0.00,,,0.01,141.000000,,2013-08-09 15:44:00,
2013-08-09 11:53:00,51.0,50.0,29.91,NE,53,0.0,0.0,96,0.00,,,0.01,141.000000,,2013-08-09 15:53:00,
2013-08-09 12:01:00,51.0,50.0,29.91,East,97,0.0,0.0,95,0.00,,,0.01,171.000000,,2013-08-09 16:01:00,
2013-08-09 12:22:00,52.0,50.0,29.91,ESE,108,0.0,0.0,94,0.00,,,0.01,179.000000,,2013-08-09 16:22:00,
2013-08-09 12:32:00,53.0,51.0,29.91,North,9,0.0,0.0,93,0.00,,,0.00,236.000000,,2013-08-09 16:32:00,
2013-08-09 12:43:00,54.0,51.0,29.92,SE,126,1.0,4.0,91,0.00,,,0.00,274.000000,,2013-08-09 16:43:00,
2013-08-09 12:53:00,56.0,53.0,29.91,SE,132,1.0,4.0,89,0.00,,,0.00,285.000000,,2013-08-09 16:53:00,
2013-08-09 13:02:00,56.0,53.0,29.91,SE,132,1.0,4.0,89,0.00,,,0.00,285.000000,,2013-08-09 17:02:00,
2013-08-09 13:11:00,56.0,53.0,29.91,West,259,1.0,3.0,89,0.00,,,0.00,315.000000,,2013-08-09 17:11:00,
2013-08-09 13:32:00,57.0,53.0,29.91,South,183,1.0,2.0,87,0.00,,,0.00,605.000000,,2013-08-09 17:32:00,
2013-08-09 13:43:00,60.0,55.0,29.91,NNW,348,1.0,2.0,83,0.00,,,0.00,647.000000,,2013-08-09 17:43:00,
2013-08-09 13:52:00,60.0,55.0,29.91,NNW,348,1.0,2.0,83,0.00,,,0.00,647.000000,,2013-08-09 17:52:00,
2013-08-09 14:01:00,62.0,55.0,29.91,WSW,252,1.0,4.0,77,0.00,,,0.00,684.000000,,2013-08-09 18:01:00,
2013-08-09 14:11:00,64.0,56.0,29.91,South,173,1.0,3.0,75,0.00,,,0.00,712.000000,,2013-08-09 18:11:00,
2013-08-09 14:32:00,63.0,55.0,29.92,ESE,118,4.0,9.0,74,0.00,,,0.00,747.000000,,2013-08-09 18:32:00,
2013-08-09 14:43:00,63.0,55.0,29.92,ESE,117,4.0,10.0,74,0.00,,,0.00,775.000000,,2013-08-09 18:43:00,
2013-08-09 14:52:00,63.0,55.0,29.92,ESE,117,4.0,10.0,74,0.00,,,0.00,775.000000,,2013-08-09 18:52:00,
2013-08-09 15:11:00,64.0,55.0,29.92,South,186,5.0,11.0,73,0.00,,,0.00,823.000000,,2013-08-09 19:11:00,
2013-08-09 15:32:00,63.0,55.0,29.92,SSE,150,5.0,11.0,74,0.00,,,0.00,840.000000,,2013-08-09 19:32:00,
2013-08-09 15:43:00,65.0,56.0,29.92,SSW,209,2.0,10.0,72,0.00,,,0.00,860.000000,,2013-08-09 19:43:00,
2013-08-09 15:52:00,65.0,56.0,29.92,SSW,209,2.0,10.0,72,0.00,,,0.00,860.000000,,2013-08-09 19:52:00,
2013-08-09 16:02:00,66.0,56.0,29.92,East,90,4.0,9.0,70,0.00,,,0.00,868.000000,,2013-08-09 20:02:00,
2013-08-09 16:11:00,67.0,56.0,29.92,South,188,3.0,7.0,67,0.00,,,0.00,875.000000,,2013-08-09 20:11:00,
2013-08-09 16:32:00,68.0,56.0,29.91,SSE,148,5.0,9.0,66,0.00,,,0.00,879.000000,,2013-08-09 20:32:00,
2013-08-09 16:43:00,69.0,57.0,29.91,SE,137,4.0,9.0,65,0.00,,,0.00,879.000000,,2013-08-09 20:43:00,
2013-08-09 17:01:00,70.0,57.0,29.91,SSW,192,4.0,10.0,63,0.00,,,0.00,877.000000,,2013-08-09 21:01:00,
2013-08-09 17:12:00,71.0,57.0,29.91,SSE,165,2.0,8.0,62,0.00,,,0.00,872.000000,,2013-08-09 21:12:00,
2013-08-09 17:32:00,72.0,57.0,29.91,South,190,3.0,10.0,59,0.00,,,0.00,868.000000,,2013-08-09 21:32:00,
2013-08-09 17:43:00,70.0,56.0,29.91,West,277,3.0,11.0,62,0.00,,,0.00,858.000000,,2013-08-09 21:43:00,
2013-08-09 18:01:00,71.0,56.0,29.91,WSW,243,3.0,10.0,59,0.00,,,0.00,842.000000,,2013-08-09 22:01:00,
2013-08-09 18:11:00,70.0,55.0,29.91,SE,126,4.0,18.0,60,0.00,,,0.00,823.000000,,2013-08-09 22:11:00,
2013-08-09 18:22:00,70.0,55.0,29.91,SE,126,4.0,18.0,60,0.00,,,0.00,823.000000,,2013-08-09 22:22:00,
2013-08-09 18:32:00,70.0,55.0,29.91,SE,126,4.0,18.0,60,0.00,,,0.00,823.000000,,2013-08-09 22:32:00,
2013-08-09 18:42:00,71.0,56.0,29.91,South,175,4.0,12.0,59,0.00,,,0.00,775.000000,,2013-08-09 22:42:00,
2013-08-09 18:52:00,71.0,56.0,29.91,South,175,4.0,12.0,59,0.00,,,0.00,775.000000,,2013-08-09 22:52:00,
2013-08-09 19:01:00,71.0,56.0,29.91,South,175,4.0,12.0,59,0.00,,,0.00,775.000000,,2013-08-09 23:01:00,
2013-08-09 19:11:00,69.0,55.0,29.91,SSE,150,3.0,8.0,60,0.00,,,0.00,715.000000,,2013-08-09 23:11:00,
2013-08-09 19:21:00,69.0,55.0,29.91,SSE,150,3.0,8.0,60,0.00,,,0.00,715.000000,,2013-08-09 23:21:00,
2013-08-09 19:32:00,68.0,54.0,29.91,East,90,4.0,10.0,61,0.00,,,0.00,686.000000,,2013-08-09 23:32:00,
2013-08-09 19:43:00,68.0,54.0,29.90,East,84,4.0,10.0,62,0.00,,,0.00,645.000000,,2013-08-09 23:43:00,
2013-08-09 19:52:00,68.0,54.0,29.90,East,84,4.0,10.0,62,0.00,,,0.00,645.000000,,2013-08-09 23:52:00,
2013-08-09 20:01:00,69.0,55.0,29.90,SSE,152,2.0,9.0,60,0.00,,,0.00,603.000000,,2013-08-10 00:01:00,
2013-08-09 20:32:00,67.0,54.0,29.91,SE,136,5.0,10.0,63,0.00,,,0.00,520.000000,,2013-08-10 00:32:00,
2013-08-09 20:43:00,66.0,54.0,29.91,SE,130,4.0,9.0,65,0.00,,,0.00,476.000000,,2013-08-10 00:43:00,
2013-08-09 20:52:00,66.0,54.0,29.91,SE,130,4.0,9.0,65,0.00,,,0.00,476.000000,,2013-08-10 00:52:00,
2013-08-09 21:01:00,66.0,54.0,29.91,SE,130,4.0,9.0,65,0.00,,,0.00,476.000000,,2013-08-10 01:01:00,
2013-08-09 21:11:00,65.0,54.0,29.91,SE,130,4.0,10.0,67,0.00,,,0.00,431.000000,,2013-08-10 01:11:00,
2013-08-09 21:21:00,65.0,54.0,29.91,SE,130,4.0,10.0,67,0.00,,,0.00,431.000000,,2013-08-10 01:21:00,
2013-08-09 21:32:00,65.0,54.0,29.91,SE,130,4.0,10.0,67,0.00,,,0.00,431.000000,,2013-08-10 01:32:00,
2013-08-09 21:42:00,62.0,54.0,29.91,ESE,122,3.0,10.0,74,0.00,,,0.00,278.000000,,2013-08-10 01:42:00,
2013-08-09 21:52:00,62.0,54.0,29.91,ESE,122,3.0,10.0,74,0.00,,,0.00,278.000000,,2013-08-10 01:52:00,
2013-08-09 22:03:00,62.0,54.0,29.91,ESE,122,3.0,10.0,74,0.00,,,0.00,278.000000,,2013-08-10 02:03:00,
2013-08-09 22:11:00,62.0,54.0,29.91,ESE,122,3.0,10.0,74,0.00,,,0.00,278.000000,,2013-08-10 02:11:00,
2013-08-09 22:21:00,62.0,54.0,29.91,ESE,122,3.0,10.0,74,0.00,,,0.00,278.000000,,2013-08-10 02:21:00,
2013-08-09 22:42:00,62.0,54.0,29.91,SSE,156,2.0,11.0,74,0.00,,,0.00,202.000000,,2013-08-10 02:42:00,
2013-08-09 22:52:00,58.0,53.0,29.92,ESE,113,4.0,9.0,83,0.00,,,0.00,32.000000,,2013-08-10 02:52:00,
2013-08-09 23:01:00,58.0,53.0,29.92,ESE,113,4.0,9.0,83,0.00,,,0.00,32.000000,,2013-08-10 03:01:00,
2013-08-09 23:11:00,58.0,53.0,29.92,ESE,113,4.0,9.0,83,0.00,,,0.00,32.000000,,2013-08-10 03:11:00,
2013-08-09 23:21:00,58.0,53.0,29.92,ESE,113,4.0,9.0,83,0.00,,,0.00,32.000000,,2013-08-10 03:21:00,
2013-08-09 23:32:00,58.0,53.0,29.92,ESE,113,4.0,9.0,83,0.00,,,0.00,32.000000,,2013-08-10 03:32:00,